Notices

What's New in latest Release from April 7th, 2021:

- Updated Glossary, including Speed of Maximum Gust, and Total Hourly Precipitation

- Updated national and regional climate services offices contacts and prices information

- Addition of station inventory lists for 1981-2010, 1971-2000, and 1961-1990 Normals.

If you haven't already, please take our survey and provide feedback about our website: https://eccc.sondage-survey.ca/f/LanguageSelection.aspx?s=442ca660-fcf1-47c0-95a9-59707d6fd709

Hourly Data Report for July 16, 2019

TORONTO CITY
ONTARIO
Current Station Operator: ECCC - MSC

43°40'00.000" N
79°24'00.000" W
112.50 m
6158355
71508
XTO

Download Data

Hourly Data (July 2019)
Hourly Data Report for July 16, 2019
TIME
LST
Temp Definition
°C
Dew Point Definition
°C
Rel Hum Definition
%
Precip. Amount Definition
mm

Wind Dir Definition
10's deg

Wind Spd Definition
km/h
Visibility Definition
km
Stn Press Definition
kPa
Hmdx Definition


Wind Chill Definition


Weather Definition


00:00 23.1 10.9 46 0.0       100.23 25   LegendNANA
01:00 22.7 14.1 58 0.0       100.30 26   LegendNANA
02:00 19.0 14.8 76 0.0       100.17     LegendNANA
03:00 18.6 14.8 79 0.0       100.11     LegendNANA
04:00 18.9 14.9 78 0.0       100.10     LegendNANA
05:00 18.9 15.0 78 0.0       100.13     LegendNANA
06:00 20.2 15.9 76 0.0       100.12 25   LegendNANA
07:00 21.9 15.8 68 0.0       100.12 26   LegendNANA
08:00 23.5 17.3 68 0.0       100.14 29   LegendNANA
09:00 25.6 18.4 64 0.0       100.15 32   LegendNANA
10:00 28.5 18.2 53 0.0       100.15 35   LegendNANA
11:00 31.3 15.8 39 0.0       100.15 36   LegendNANA
12:00 30.4 15.3 40 0.0       100.12 35   LegendNANA
13:00 30.6 15.6 40 0.0       100.06 35   LegendNANA
14:00 27.6 16.9 52 0.0       100.08 33   LegendNANA
15:00 27.7 18.8 59 0.0       99.99 34   LegendNANA
16:00 26.3 19.2 65 4.5       99.99 33   LegendNANA
17:00 27.7 18.1 56 0.0       99.95 34   LegendNANA
18:00 27.0 18.4 59 0.0       99.89 33   LegendNANA
19:00 25.6 18.3 64 0.0       99.89 32   LegendNANA
20:00 25.5 18.7 66 0.0       99.92 32   LegendNANA
21:00 24.6 20.3 77 0.0       99.96 32   LegendNANA
22:00 24.6 20.4 77 0.0       99.97 33   LegendNANA
23:00 24.1 20.3 79 0.0       99.95 32   LegendNANA

Notes on Data Quality.

Legend

  • E = Estimated
  • M = Missing
  • NA = Not Available*
  • [empty] = Indicates an unobserved value
Date modified: